Regional Weather Roundup
Issued by NWS

Home | Current Version | Previous Version | Text Only | Print | Product List | Glossary On
Versions: 1 2 3 4 5 6 7 8 9 10 11 12 13 14 15 16 17 18 19 20 21 22 23 24 25 26 27 28 29 30 31 32 33 34 35 36 37 38 39 40 41 42 43 44 45 46 47 48 49 50
000
ASUS43 KMKX 242211
RWRWI

WISCONSIN REGIONAL WEATHER ROUNDUP
NATIONAL WEATHER SERVICE MILWAUKEE/SULLIVAN WI
500 PM CDT SAT SEP 24 2016

NOTE: "FAIR" INDICATES FEW OR NO CLOUDS BELOW 12,000 FEET WITH NO
SIGNIFICANT WEATHER AND/OR OBSTRUCTIONS TO VISIBILITY.

WIZ001-002-006>008-014>016-023>028-242300-
NORTHWEST WISCONSIN

CITY           SKY/WX    TMP DP  RH WIND       PRES   REMARKS
SUPERIOR ARPT  CLOUDY    60  58  94 NE7       30.06S
ASHLAND        CLOUDY    68  60  75 E7        30.08F
HAYWARD        CLOUDY    67  59  75 SE8       30.07F
SIREN          CLOUDY    67  60  78 SE14G22   30.05S
CUMBERLAND     CLOUDY    64  59  82 SE10G17   30.08R
RICE LAKE      CLOUDY    67  59  76 SE14      30.09S
CHETEK         NOT AVBL
LADYSMITH      MOSUNNY   69  58  68 SE7       30.11F
EAU CLAIRE     CLOUDY    67  60  78 SE10      30.07F
MENOMONIE      CLOUDY    67  61  80 E9        30.07S
NEW RICHMOND   CLOUDY    67  60  78 SE14G20   30.04F
OSCEOLA        CLOUDY    68  65  89 SE14G23   30.06R
$$

WIZ003>005-009-010-017-018-242300-
NORTH CENTRAL WISCONSIN

CITY           SKY/WX    TMP DP  RH WIND       PRES   REMARKS
MANITOWISH WTR NOT AVBL
ARBOR VITAE    SUNNY     69  55  59 S12       30.14F
WOODRUFF       SUNNY     69  55  59 S12       30.14F
RHINELANDER    SUNNY     67  54  63 SE9       30.16F
EAGLE RIVER    SUNNY     67  49  53 SE7       30.15S
LAND O LAKES   SUNNY     68  52  56 SE8       30.17F
PHILLIPS       SUNNY     68  58  69 SE10      30.11F
TOMAHAWK       SUNNY     67  54  63 SE6       30.14F
MEDFORD        SUNNY     67  55  67 SE10      30.12F
MERRILL        SUNNY     67  55  65 SE10      30.15F
$$

WIZ029-030-035-036-043>047-242300-
CENTRAL WISCONSIN

CITY           SKY/WX    TMP DP  RH WIND       PRES   REMARKS
WAUSAU         SUNNY     68  53  58 SE12      30.13F
MOSINEE        SUNNY     66  55  68 SE13      30.15F
MARSHFIELD     CLOUDY    67  56  67 SE14      30.12F
STEVENS POINT  SUNNY     65  55  68 SE13      30.15F
WAUPACA        CLOUDY    69  57  64 E10       30.15F
WAUTOMA        CLOUDY    68  59  73 E8        30.14F
WISC RAPIDS    LGT RAIN  68  59  73 SE8G18    30.14F
CAMP DOUGLAS   CLOUDY    66  60  80 SE12      30.11F
$$

WIZ011>013-019>022-031-037>040-048>050-242300-
NORTHEAST WISCONSIN

CITY           SKY/WX    TMP DP  RH WIND       PRES   REMARKS
ANTIGO         SUNNY     64  54  68 SE15      30.17F
SHAWANO        SUNNY     71  53  53 SE8       30.16F
OCONTO         NOT AVBL
STURGEON BAY   SUNNY     64  51  62 SE9       30.21F
GREEN BAY      SUNNY     68  54  60 SE12      30.18F
MANITOWOC      SUNNY     65  53  65 E8        30.20F
APPLETON       PTSUNNY   68  48  49 SE9       30.16F
CLINTONVILLE   NOT AVBL
OSHKOSH        CLOUDY    67  56  67 E9        30.16F
$$

WIZ032>034-041-042-053>061-242300-
SOUTHWEST WISCONSIN

CITY           SKY/WX    TMP DP  RH WIND       PRES   REMARKS
LA CROSSE      CLOUDY    71  63  75 SE8       30.07S
SPARTA         CLOUDY    66  61  84 SE9       30.10F
VIROQUA        CLOUDY    66  62  87 SE7G16    30.09F
BOSCOBEL       CLOUDY    72  64  76 E5        30.09F
PRAIRIE DU CHI CLOUDY    72  64  77 E8        30.06S
PLATTEVILLE    CLOUDY    73  68  83 E12       30.09F
$$

WIZ056-057-062-063-064-067-068-242300-
SOUTH CENTRAL WISCONSIN

CITY           SKY/WX    TMP DP  RH WIND       PRES   REMARKS
REEDSBURG      NOT AVBL
BARABOO/DELLS  PTSUNNY   69  59  70 E8        30.11F
LONE ROCK      CLOUDY    70  63  78 E8        30.10F
MINERAL POINT  CLOUDY    72  66  83 SE12G17   30.10F
MADISON        SUNNY     70  61  73 E13       30.12F
MIDDLETON      SUNNY     72  62  71 SE10      30.12F
WATERTOWN      MOSUNNY   68  63  82 E12       30.14F
MONROE         SUNNY     72  63  73 E7        30.11F
JANESVILLE     PTSUNNY   73  63  68 E12G17    30.12F
$$

WIZ051-052-058>065-066-070>072-242300-
SOUTHEAST WISCONSIN

CITY           SKY/WX    TMP DP  RH WIND       PRES   REMARKS
MILWAUKEE      CLOUDY    67  60  78 E7        30.17F
WAUKESHA       CLOUDY    64  59  82 E10       30.18F
MILWAUKEE/TIMM CLOUDY    66  55  68 SE8       30.18F
RACINE         CLOUDY    67  60  78 E8        30.18F
BURLINGTON     CLOUDY    67  60  77 E7        30.15F
KENOSHA        CLOUDY    67  62  84 E12       30.16F
FOND DU LAC    CLOUDY    67  57  70 SE10      30.17F
SHEBOYGAN      MOSUNNY   64  55  72 SE6       30.19F
WEST BEND      CLOUDY    63  57  82 E8        30.17F
JUNEAU         CLOUDY    66  60  79 E12       30.16F
$$

LSZ147-162-242300-
LAKE SUPERIOR

STATION/POSITION TIME  TEMP    WIND        PRES    WAVE
                       AIR SEA DIR/SP/G            HT/PER
                 (UTC) (F)     (DEG/KT/KT) (MB)    (FT/S)
W MID LAKE BUOY  2150   63 62   90/ 16/ 17 1019.2F   2/ 4
DEVILS ISLAND    2200   62      70/ 12/ 13 1019.0F
SAXON HARBOR     2100   71      70/  2/  4 1019.3F
$$

LMZ867-665-643>646-242300-
LAKE MICHIGAN

STATION/POSITION TIME  TEMP    WIND        PRES    WAVE
                       AIR SEA DIR/SP/G            HT/PER
                 (UTC) (F)     (DEG/KT/KT) (MB)    (FT/S)
CHAMBERS ISLAND  2100   65     120/  4/  8 1023.0F
S GREEN BAY BUOY 2100   65 67  140/  8/  8 1022.5F
N MID LAKE BUOY  2150   63 67  110/ 12/ 14 1023.0F   1/ 3
NORTHPORT PIER   2100   64     120/  8/  9 1023.4F
KEWAUNEE LAKESHO 2100   64     130/  5/  7 1022.7F
SHEBOYGAN LAKESH 2200   64     120/  8/ 10 1021.8F
PORT WASHINGTON  2100   66      60/  3/  4 1023.0
ATWATER BUOY     2100   64 62  100/  6/  8 1022.2F
MILWAUKEE LAKESH 2110   63      70/  6/  7   N/A
S MID LAKE BUOY  2150   68 72   80/ 10/ 12 1021.0F   2/ 4
KENOSHA   LAKESH 2200   67      90/  8/  9 1020.7F
$$

TC  - TEMPERATURE IN CELSIUS
VSB - VISIBILITY IN STATUTE MILES
WCI - WIND CHILL INDEX
HX  - HEAT INDEX





USA.gov is the U.S. government's official web portal to all federal, state and local government web resources and services.